SL-14 DEB, 45291

Orbit data source: Space-Track

SL-14 DEB, 45291 is space debris in LEO originally from a launch on Thu, 15 Aug 1991 UTC launched from the Plesetsk Missile And Space Complex (PKMTR). Debris objects in space refer to the collection of defunct objects orbiting the Earth. Examples of debris include non-operational satellites, rocket bodies, and fragments generated from explosions, collisions, or faulty payload assembly.

Loading next visibility...
Identifier
45291, 1991-056AD
Orbit
LEO
Country
Flag of CISCIS
Related business
Manufacturer
Unknown
Mission
Spacecraft
Bus & Motor
Unknown
Mass
Unknown
Launch date (UTC)
1991-08-15 (34 years ago)
Launch vehicle
Unknown
Launch site
Plesetsk Missile And Space Complex (PKMTR)
Object type
Payload
Rocket body
Debris
Shape & HBR
Unknown shape, 0.1 m
Radar Cross Section
Small (<0.1 m²)

Expand to show TLE details & history
Last TLE update: 18 hours ago

TLE from 18 hours ago
0 SL-14 DEB
1 45291U 91056AD  25347.27051057  .00000373  00000-0  10209-2 0  9997
2 45291  82.5479 287.3661 0040251  53.3362 307.1446 13.10839185278219
Epoch: 2025-12-13T06:29Z
TLE epoch observation values (Epoch: 2025-12-13T06:29:32.113Z)
Latitude
0.00001°
Longitude
107.78211°
Altitude
1,204.321 km
Speed
7.261 km/s
True Right ascension
19h 09m 27s
True Declination
0° 00' 00"
Sunlit
Object was in daylight at epoch
Visualization orbit readout
Latitude
Unknown
Longitude
Unknown
Altitude
Unknown
Speed
Unknown
Apparent Right ascension
Unknown
Apparent Declination
Unknown
Sunlit
N/A
Visualization observer readout
Local Sidereal Time
22:52:11
Azimuth
Unknown
Elevation
Unknown
Doppler factor
Unknown
Orbital elements
Apogee altitude
1,247.74 km
Perigee altitude
1,186.596 km
Semi-major axis
7,595.305 km
Eccentricity
0.00403
Inclination
82.5479°
RAAN
287.3661°
Arg. of periapsis
53.3362°
True anomaly
306.77582°
Mean anomaly
307.1446°
Eccentric anomaly
306.96032°
Mean motion
3.27888 °/min
Orbital period
109.79 mins
BSTAR
0.0010209
Loading maneuver chart data...
Computing Atmospheric mass density...
Loading historical data...
Loading historical data...
Loading historical data...
Loading historical data...
Loading historical data...
Loading historical data...
Loading historical data...

Documentation

Showing up to 5 results
|